When you browse on this site, cookies collect data to enhance your experience and personalize the content and advertising you see.
Visit our Privacy Policy to learn more. By continuing to use the site, you agree to this use of cookies and data.
  • In Schweiz
  • Länderverzeichnis
  • Für 7 Tage
  • Wassertemperatur
  • Wetterkarte
  • Widgets
  • user-avatar
    Anmelden

    Stündliche Wetter Podmogile

    Heute, 24 Januar, Freitag

    Zeit Temperatur Niederschläge Wind Luftdruck Luftfeuchtigkeit
    00:00 -2°C° 0 mm 4 m/S 748 mmHg 82%
    01:00 -1°C° 0 mm 4 m/S 748 mmHg 82%
    02:00 -1°C° 0 mm 4 m/S 747 mmHg 82%
    03:00 -1°C° 0 mm 4 m/S 746 mmHg 85%
    04:00 0°C° 0 mm 4 m/S 745 mmHg 87%
    05:00 +1°C° 0 mm 4 m/S 745 mmHg 90%
    06:00 +1°C° 0 mm 4 m/S 744 mmHg 90%
    07:00 +1°C° 0 mm 4 m/S 744 mmHg 90%
    08:00 +2°C° 0 mm 3 m/S 744 mmHg 91%
    09:00 +3°C° 0 mm 4 m/S 743 mmHg 90%
    10:00 +3°C° 0 mm 4 m/S 743 mmHg 89%
    11:00 +2°C° 0 mm 5 m/S 743 mmHg 88%
    12:00 +2°C° 0 mm 5 m/S 743 mmHg 86%
    13:00 +2°C° 0 mm 5 m/S 743 mmHg 84%
    14:00 +2°C° 0 mm 5 m/S 743 mmHg 82%
    15:00 +2°C° 0 mm 5 m/S 743 mmHg 84%
    16:00 +3°C° 0 mm 4 m/S 742 mmHg 87%
    17:00 +3°C° 0 mm 4 m/S 742 mmHg 89%
    18:00 +3°C° 0.1 mm 4 m/S 742 mmHg 89%
    19:00 +3°C° 0.1 mm 4 m/S 742 mmHg 88%
    20:00 +3°C° 0.1 mm 4 m/S 742 mmHg 88%
    21:00 +3°C° 0.1 mm 4 m/S 742 mmHg 87%
    22:00 +1°C° 0.1 mm 4 m/S 742 mmHg 86%
    23:00 +1°C° 0.1 mm 4 m/S 742 mmHg 86%

    Morgen, 25 Januar, Samstag

    Zeit Temperatur Niederschläge Wind Luftdruck Luftfeuchtigkeit
    00:00 +1°C° 0.1 mm 4 m/S 742 mmHg 85%
    01:00 +1°C° 0.1 mm 4 m/S 742 mmHg 84%
    02:00 0°C° 0.1 mm 4 m/S 742 mmHg 84%
    03:00 0°C° 0 mm 4 m/S 741 mmHg 85%
    04:00 0°C° 0 mm 5 m/S 741 mmHg 87%
    05:00 0°C° 0 mm 5 m/S 741 mmHg 88%
    06:00 0°C° 0 mm 5 m/S 741 mmHg 83%
    07:00 -1°C° 0 mm 6 m/S 740 mmHg 79%
    08:00 -1°C° 0 mm 6 m/S 740 mmHg 74%
    09:00 -1°C° 0 mm 6 m/S 741 mmHg 70%
    10:00 -1°C° 0 mm 6 m/S 741 mmHg 67%
    11:00 -1°C° 0 mm 6 m/S 741 mmHg 63%
    12:00 -1°C° 0 mm 6 m/S 742 mmHg 63%
    13:00 -1°C° 0 mm 6 m/S 742 mmHg 62%
    14:00 -1°C° 0 mm 6 m/S 742 mmHg 62%
    15:00 -1°C° 0 mm 5 m/S 743 mmHg 62%
    16:00 -1°C° 0 mm 5 m/S 743 mmHg 63%
    17:00 -2°C° 0 mm 4 m/S 743 mmHg 64%
    18:00 -2°C° 0 mm 4 m/S 744 mmHg 64%
    19:00 -2°C° 0 mm 4 m/S 745 mmHg 65%
    20:00 -3°C° 0 mm 4 m/S 746 mmHg 65%
    21:00 -3°C° 0 mm 4 m/S 746 mmHg 66%
    22:00 -3°C° 0 mm 4 m/S 747 mmHg 68%
    23:00 -3°C° 0 mm 4 m/S 748 mmHg 69%

    übermorgen, 26 Januar, Sonntag

    Zeit Temperatur Niederschläge Wind Luftdruck Luftfeuchtigkeit
    00:00 -3°C° 0 mm 4 m/S 748 mmHg 69%
    01:00 -2°C° 0 mm 3 m/S 749 mmHg 70%
    02:00 -2°C° 0 mm 3 m/S 749 mmHg 71%
    03:00 -2°C° 0 mm 3 m/S 749 mmHg 71%
    04:00 -2°C° 0 mm 3 m/S 749 mmHg 71%
    05:00 -2°C° 0 mm 3 m/S 750 mmHg 71%
    06:00 -2°C° 0 mm 3 m/S 750 mmHg 72%
    07:00 -2°C° 0 mm 3 m/S 749 mmHg 72%
    08:00 -2°C° 0 mm 3 m/S 749 mmHg 73%
    09:00 -1°C° 0.2 mm 3 m/S 749 mmHg 80%
    10:00 -2°C° 0.2 mm 4 m/S 749 mmHg 87%
    11:00 -2°C° 0.2 mm 4 m/S 749 mmHg 94%
    12:00 -1°C° 0.3 mm 5 m/S 749 mmHg 93%
    13:00 0°C° 0.3 mm 5 m/S 749 mmHg 92%
    14:00 +1°C° 0.3 mm 5 m/S 748 mmHg 91%
    15:00 +1°C° 0.1 mm 5 m/S 748 mmHg 90%
    16:00 +2°C° 0.1 mm 5 m/S 748 mmHg 89%
    17:00 +2°C° 0.1 mm 5 m/S 748 mmHg 88%
    18:00 +2°C° 0 mm 5 m/S 748 mmHg 89%
    19:00 +2°C° 0 mm 5 m/S 749 mmHg 90%
    20:00 +2°C° 0 mm 5 m/S 749 mmHg 91%
    21:00 +2°C° 0 mm 5 m/S 749 mmHg 91%
    22:00 +2°C° 0 mm 5 m/S 749 mmHg 90%
    23:00 +3°C° 0 mm 4 m/S 749 mmHg 90%

    27 Januar, Montag

    Zeit Temperatur Niederschläge Wind Luftdruck Luftfeuchtigkeit
    00:00 +1°C° 0 mm 4 m/S 749 mmHg 90%
    01:00 +1°C° 0 mm 4 m/S 749 mmHg 90%
    02:00 +1°C° 0 mm 4 m/S 749 mmHg 90%
    03:00 +1°C° 0 mm 4 m/S 749 mmHg 91%
    04:00 +1°C° 0 mm 4 m/S 749 mmHg 92%
    05:00 +1°C° 0 mm 4 m/S 749 mmHg 92%
    06:00 +1°C° 0.1 mm 4 m/S 749 mmHg 92%
    07:00 +1°C° 0.1 mm 4 m/S 749 mmHg 93%
    08:00 +1°C° 0.1 mm 4 m/S 749 mmHg 93%
    09:00 +1°C° 0 mm 4 m/S 749 mmHg 93%
    10:00 +1°C° 0 mm 4 m/S 749 mmHg 93%
    11:00 +3°C° 0 mm 4 m/S 749 mmHg 94%
    12:00 +3°C° 0 mm 3 m/S 749 mmHg 93%
    13:00 +3°C° 0 mm 3 m/S 749 mmHg 92%
    14:00 +3°C° 0 mm 3 m/S 749 mmHg 92%
    15:00 +2°C° 0 mm 3 m/S 749 mmHg 91%
    16:00 +2°C° 0 mm 3 m/S 749 mmHg 90%
    17:00 +2°C° 0 mm 3 m/S 749 mmHg 90%
    18:00 +2°C° 0 mm 3 m/S 748 mmHg 91%
    19:00 +2°C° 0 mm 3 m/S 748 mmHg 92%
    20:00 +3°C° 0 mm 2 m/S 748 mmHg 93%
    21:00 +3°C° 0.1 mm 2 m/S 748 mmHg 94%
    22:00 +3°C° 0.1 mm 2 m/S 748 mmHg 94%
    23:00 +3°C° 0.1 mm 2 m/S 748 mmHg 94%

    28 Januar, Dienstag

    Zeit Temperatur Niederschläge Wind Luftdruck Luftfeuchtigkeit
    00:00 +2°C° 0 mm 2 m/S 747 mmHg 94%
    01:00 +2°C° 0 mm 2 m/S 747 mmHg 93%
    02:00 +2°C° 0 mm 2 m/S 747 mmHg 92%
    03:00 +2°C° 0 mm 2 m/S 747 mmHg 92%
    04:00 +2°C° 0 mm 2 m/S 746 mmHg 92%
    05:00 +2°C° 0 mm 2 m/S 746 mmHg 92%
    06:00 +1°C° 0 mm 3 m/S 746 mmHg 92%
    07:00 +1°C° 0 mm 3 m/S 746 mmHg 93%
    08:00 +1°C° 0 mm 3 m/S 745 mmHg 94%
    09:00 +1°C° 0 mm 3 m/S 745 mmHg 93%
    10:00 0°C° 0 mm 4 m/S 745 mmHg 91%
    11:00 0°C° 0 mm 4 m/S 745 mmHg 90%
    12:00 0°C° 0 mm 4 m/S 744 mmHg 90%
    13:00 0°C° 0 mm 4 m/S 744 mmHg 90%
    14:00 +1°C° 0 mm 4 m/S 743 mmHg 89%
    15:00 +1°C° 0 mm 4 m/S 743 mmHg 89%
    16:00 +1°C° 0 mm 4 m/S 742 mmHg 88%
    17:00 +1°C° 0 mm 4 m/S 742 mmHg 88%
    18:00 +1°C° 0.1 mm 4 m/S 742 mmHg 88%
    19:00 +1°C° 0.1 mm 5 m/S 741 mmHg 88%
    20:00 +1°C° 0.1 mm 5 m/S 740 mmHg 89%
    21:00 +1°C° 0.3 mm 5 m/S 740 mmHg 91%
    22:00 +1°C° 0.3 mm 6 m/S 740 mmHg 92%
    23:00 +1°C° 0.3 mm 6 m/S 739 mmHg 94%

    29 Januar, Mittwoch

    Zeit Temperatur Niederschläge Wind Luftdruck Luftfeuchtigkeit
    00:00 +1°C° 0.4 mm 6 m/S 739 mmHg 94%
    01:00 +1°C° 0.4 mm 5 m/S 738 mmHg 94%
    02:00 +1°C° 0.4 mm 5 m/S 738 mmHg 94%
    03:00 +1°C° 0.1 mm 5 m/S 737 mmHg 93%
    04:00 +1°C° 0.1 mm 5 m/S 736 mmHg 92%
    05:00 +1°C° 0.1 mm 5 m/S 736 mmHg 92%
    06:00 +1°C° 0.4 mm 6 m/S 736 mmHg 93%
    07:00 +1°C° 0.4 mm 6 m/S 736 mmHg 93%
    08:00 -1°C° 0.4 mm 7 m/S 736 mmHg 94%
    09:00 +1°C° 0.2 mm 6 m/S 736 mmHg 88%
    10:00 +1°C° 0.2 mm 6 m/S 737 mmHg 82%
    11:00 +1°C° 0.2 mm 5 m/S 737 mmHg 75%
    12:00 +1°C° 0 mm 5 m/S 737 mmHg 74%
    13:00 +1°C° 0 mm 5 m/S 737 mmHg 73%
    14:00 +1°C° 0 mm 5 m/S 737 mmHg 71%
    15:00 +1°C° 0 mm 4 m/S 737 mmHg 73%
    16:00 +1°C° 0 mm 4 m/S 736 mmHg 75%
    17:00 0°C° 0 mm 4 m/S 736 mmHg 77%
    18:00 0°C° 0.1 mm 4 m/S 736 mmHg 83%
    19:00 -1°C° 0.1 mm 4 m/S 735 mmHg 89%
    20:00 -1°C° 0.1 mm 4 m/S 735 mmHg 96%
    21:00 -1°C° 0.3 mm 4 m/S 735 mmHg 95%
    22:00 -1°C° 0.3 mm 4 m/S 736 mmHg 95%
    23:00 -1°C° 0.3 mm 5 m/S 736 mmHg 95%
    Mehr zeigen